[[{"header":{"parameterUnit":"m.s-1","parameterCategory":2,"la1":30.2991,"la2":30.254,"lo1":-89.0895,"lo2":-89.0444,"dy":0.0017,"dx":0.0017,"nx":28,"ny":28,"refTime":"2024-07-13T09:00:00:Z","depth":"0","parameterNumber":2,"parameterNumberName":"U-component_of_CURRENTS"},"data":[0,0,0,0,0,0,0,0,0,0,0,0,0,0,0,0,0,0,0,0,0,0,0,0,0,0,0,0,0,0,0,0,0,0,0,0,0,0,0,0,0,0,0,0,0,0,0,0,0,0,0,0,0,0,0,0,0,0,0.2037,0.2037,0,0.2041,0.2041,0.2042,0.2019,0.2017,0.2016,0.2015,0.2146,0.2151,0.2155,0,0,0,0,0,0,0,0,0,0,0,0,0,0.2021,0.2022,0.2037,0.2037,0.2036,0.2041,0.2041,0.2042,0.2019,0.2017,0.2016,0.2014,0.2145,0.215,0.2156,0,0,0,0,0,0,0,0,0,0,0,0,0,0.2033,0.2022,0.2037,0.202,0.2018,0.204,0.2041,0.2042,0.2019,0.2017,0.2015,0.2014,0.2143,0.215,0.2157,0.2237,0,0,0.2178,0.2181,0,0,0,0,0,0,0,0,0.2032,0.2034,0.2023,0.2021,0.2019,0.2021,0.2083,0.2112,0.202,0.2026,0.2015,0.2013,0.2114,0.2123,0.2135,0.2244,0.2249,0.2179,0.2183,0.2186,0.2188,0,0,0,0,0,0,0,0.2032,0.2034,0.2045,0.2023,0.202,0.2016,0.2016,0.2089,0.2088,0.2025,0.2022,0.2012,0.2114,0.2128,0.2138,0.2251,0.2178,0.2185,0.2189,0.2192,0.2302,0.2301,0,0,0,0,0,0,0.202,0.2034,0.2045,0.2045,0.2014,0.2017,0.2018,0.2028,0.2084,0.2088,0.2014,0.2011,0.2117,0.213,0.2143,0.216,0.2186,0.2192,0.2196,0.2303,0.2302,0.23,0,0,0,0,0,0,0.202,0.2022,0.2045,0.2032,0.2034,0.2018,0.2031,0.2029,0.2039,0.2073,0.208,0.2024,0.2116,0.2133,0.2165,0.2168,0.2196,0.2202,0.2305,0.2303,0.2301,0.2247,0,0,0,0,0,0,0.202,0.2023,0.2037,0.2033,0.2034,0.2059,0.2032,0.203,0.2033,0.203,0.2085,0.2095,0.2116,0.2154,0.2172,0.2178,0.2207,0.2306,0.2304,0.2302,0.225,0.2243,0.2237,0,0,0,0,0,0.202,0.2036,0.2038,0.2039,0.2051,0.2059,0.2061,0.2047,0.2035,0.2049,0.205,0.2093,0.2151,0.2159,0.218,0.2188,0.2308,0.2305,0.2302,0.2253,0.2245,0.2238,0,0,0,0,0,0,0.2018,0.2035,0.2036,0.2053,0.2057,0.2052,0.2047,0.2055,0.2071,0.2057,0.2094,0.2104,0.2116,0.2165,0.2173,0.2206,0.2232,0.2233,0.2187,0.218,0.2174,0.2172,0.2213,0,0,0,0,0,0.203,0.2066,0.2059,0.2078,0.2064,0.2064,0.2067,0.2062,0.2066,0.207,0.2116,0.2135,0.2127,0.2161,0.2175,0.2234,0.2269,0.2244,0.2238,0.2232,0.2241,0.2279,0.2278,0.2291,0.2291,0.2291,0,0,0.2033,0.2049,0.2066,0.2084,0.2071,0.2062,0.2061,0.2057,0.2066,0.2088,0.2124,0.2118,0.2127,0.2141,0.2157,0.219,0.2242,0.2229,0.2224,0.2236,0.2276,0.2275,0.2274,0.2289,0.229,0.229,0,0,0.2038,0.2061,0.2073,0.2076,0.2067,0.2068,0.2069,0.2078,0.2089,0.2128,0.2095,0.2085,0.2163,0.2132,0.2128,0.211,0.2185,0.2127,0.2132,0.2168,0.2168,0.2169,0.2198,0.2202,0.2152,0.2152,0.2152,0,0.2038,0.205,0.2076,0.2069,0.2061,0.2067,0.2052,0.2071,0.2105,0.2117,0.2133,0.214,0.2146,0.2108,0.2077,0.2098,0.2139,0.2161,0.2162,0.2163,0.2165,0.2195,0.22,0.2149,0.2149,0.2149,0.215,0,0.2035,0.2039,0.2032,0.2038,0.2047,0.2034,0.2043,0.2073,0.2099,0.212,0.212,0.2115,0.2122,0.2107,0.2091,0.2084,0.2113,0.2128,0.2187,0.2161,0.2194,0.22,0.2144,0.2146,0.2146,0.2147,0,0,0.2033,0.2033,0.2026,0.2018,0.2024,0.2026,0.204,0.2052,0.2053,0.2108,0.2123,0.2081,0.2092,0.2084,0.2062,0.2088,0.2106,0.2124,0.2127,0.2161,0.22,0.2108,0.2106,0.2141,0.2142,0.2142,0.2214,0,0.2007,0.1993,0.2007,0.1989,0.1969,0.199,0.2004,0.2029,0.2061,0.2094,0.209,0.2089,0.2081,0.2072,0.2093,0.2096,0.2123,0.2085,0.2213,0.2216,0.2146,0.211,0.1977,0.202,0.2221,0.2222,0.2222,0,0.1976,0.1979,0.195,0.1959,0.1948,0.195,0.1966,0.1984,0.202,0.205,0.2068,0.2084,0.2089,0.2098,0.2145,0.2135,0.2163,0.2179,0.2183,0.2125,0.2135,0.208,0.2024,0.1905,0.2232,0.2231,0.2231,0,0.1951,0.1934,0.1915,0.1912,0.1923,0.1925,0.1939,0.1968,0.1982,0.2024,0.2051,0.2078,0.2108,0.2151,0.2192,0.2187,0.2266,0.2265,0.2207,0.2202,0.2124,0.2109,0.1974,0.2304,0.2304,0.2304,0.2303,0,0.1922,0.1908,0.1896,0.189,0.187,0.1897,0.189,0.1914,0.1947,0.1957,0.2022,0.2042,0.2133,0.2192,0.2215,0.2232,0.2297,0.2197,0.2209,0.2096,0.2079,0.2002,0.1977,0.2306,0.2306,0.2305,0.2305,0,0.1901,0.1891,0.1862,0.1857,0.1854,0.1842,0.186,0.1859,0.1905,0.1926,0.1947,0.2049,0.2126,0.2197,0.2277,0.2255,0.2182,0.2265,0.2118,0.2108,0.1891,0.1869,0.1764,0.1725,0.2195,0.2193,0.2191,0,0.1889,0.1865,0.1827,0.18,0.1794,0.1786,0.178,0.1826,0.1832,0.1914,0.1922,0.2028,0.2071,0.216,0.2154,0.2179,0.213,0.2055,0.1983,0.1841,0.183,0.1786,0.176,0.1869,0.1865,0.1862,0.1859,0,0.1857,0.1829,0.1811,0.1748,0.1722,0.1708,0.1713,0.1716,0.1772,0.1796,0.1847,0.1894,0.1981,0.195,0.1987,0.1982,0.1894,0.1981,0.1882,0.1586,0.1487,0.1468,0.1866,0.1829,0.1832,0.1834,0.1836,0.1837,0.1822,0.1783,0.1732,0.1684,0.1649,0.1625,0.1608,0.162,0.1625,0.1632,0.1722,0.1721,0.1723,0.1745,0.1733,0.1572,0.1676,0.1497,0.1496,0.1475,0.1371,0.1682,0.1621,0.1622,0.1624,0.1625,0.1626,0,0.1748,0.1721,0.1671,0.1601,0.1545,0.1558,0.1548,0.1521,0.1496,0.1488,0.1496,0.1414,0.1351,0.1334,0.119,0.1088,0.1071,0.1061,0.0968,0.0983,0.1289,0.1202,0.0986,0.0986,0.0986,0.0986,0.0986,0.0986,0.1704,0.1646,0.1624,0.1517,0.1469,0.1401,0.1389,0.1355,0.1329,0.1226,0.114,0.1138,0.1092,0.0913,0.0715,0.0695,0.0622,0.0585,0.0649,0.0834,0.0874,0.0913,0.082,0.0528,0.0528,0.0281,0.0278,0.0277]},{"header":{"parameterUnit":"m.s-1","parameterCategory":2,"la1":30.2991,"la2":30.254,"lo1":-89.0895,"lo2":-89.0444,"dy":0.0017,"dx":0.0017,"nx":28,"ny":28,"refTime":"2024-07-13T09:00:00:Z","depth":"0","parameterNumber":3,"parameterNumberName":"V-component_of_CURRENTS"},"data":[0,0,0,0,0,0,0,0,0,0,0,0,0,0,0,0,0,0,0,0,0,0,0,0,0,0,0,0,0,0,0,0,0,0,0,0,0,0,0,0,0,0,0,0,0,0,0,0,0,0,0,0,0,0,0,0,0,0,0.1022,0.1022,0,0.0976,0.0976,0.0975,0.092,0.092,0.0919,0.0919,0.0986,0.0988,0.099,0,0,0,0,0,0,0,0,0,0,0,0,0,0.0993,0.0994,0.1022,0.1022,0.1022,0.0977,0.0976,0.0975,0.092,0.092,0.0919,0.0918,0.0985,0.0988,0.099,0,0,0,0,0,0,0,0,0,0,0,0,0,0.098,0.0994,0.1022,0.0991,0.0988,0.0977,0.0976,0.0974,0.092,0.092,0.0919,0.0918,0.0984,0.0987,0.0991,0.1029,0,0,0.1001,0.1003,0,0,0,0,0,0,0,0,0.098,0.098,0.0996,0.0993,0.099,0.0956,0.099,0.0999,0.0921,0.0943,0.0919,0.0918,0.0989,0.0992,0.0979,0.1032,0.1035,0.1002,0.1004,0.1005,0.1006,0,0,0,0,0,0,0,0.0982,0.0982,0.1001,0.0996,0.0992,0.0956,0.0954,0.099,0.0971,0.0941,0.0938,0.0938,0.0988,0.0976,0.0981,0.1036,0.1002,0.1005,0.1007,0.1008,0.1023,0.1022,0,0,0,0,0,0,0.0998,0.0983,0.1002,0.1,0.0987,0.0958,0.0955,0.0965,0.0968,0.0967,0.0939,0.0936,0.097,0.0977,0.0983,0.1001,0.1005,0.1009,0.101,0.1025,0.1023,0.1021,0,0,0,0,0,0,0.0998,0.1001,0.1004,0.0992,0.099,0.096,0.0972,0.0965,0.0957,0.0965,0.0966,0.0939,0.097,0.0978,0.1008,0.1005,0.101,0.1013,0.1027,0.1024,0.1022,0.1056,0,0,0,0,0,0,0.0998,0.1001,0.1013,0.0994,0.0992,0.1013,0.0972,0.0965,0.096,0.0956,0.0967,0.0971,0.097,0.1003,0.1011,0.101,0.1016,0.1029,0.1026,0.1023,0.1057,0.1055,0.1053,0,0,0,0,0,0.0997,0.1013,0.1014,0.1016,0.101,0.1014,0.101,0.0982,0.0961,0.097,0.0961,0.0971,0.0987,0.1006,0.1016,0.1015,0.1031,0.1027,0.1023,0.1058,0.1055,0.1053,0,0,0,0,0,0,0.0989,0.1009,0.1009,0.1027,0.1031,0.1006,0.0999,0.0992,0.0989,0.0978,0.0982,0.0987,0.0996,0.1,0.1021,0.0999,0.0998,0.0996,0.1021,0.1019,0.1017,0.1016,0.1019,0,0,0,0,0,0.1001,0.1033,0.1033,0.1051,0.1044,0.1027,0.1023,0.1013,0.1007,0.1002,0.1013,0.1001,0.0987,0.1002,0.0995,0.1022,0.1019,0.1011,0.1009,0.1008,0.1008,0.0993,0.0991,0.1009,0.1009,0.1009,0,0,0.1001,0.1021,0.1034,0.1055,0.104,0.1038,0.102,0.1018,0.1021,0.1016,0.1023,0.1008,0.0988,0.0987,0.0991,0.1,0.1002,0.1003,0.1004,0.1003,0.0989,0.0988,0.0987,0.1006,0.1007,0.1007,0,0,0.1008,0.1031,0.1045,0.1057,0.106,0.1053,0.106,0.1049,0.1043,0.1068,0.1026,0.1011,0.1035,0.0995,0.0981,0.097,0.0986,0.0962,0.0975,0.0961,0.0961,0.096,0.097,0.0971,0.0971,0.0971,0.0971,0,0.0997,0.1029,0.1048,0.1058,0.1066,0.1062,0.1064,0.106,0.1069,0.1069,0.1076,0.1036,0.1028,0.0988,0.0968,0.097,0.0976,0.0997,0.0963,0.0963,0.0962,0.0972,0.0972,0.0972,0.0972,0.0972,0.0972,0,0.1006,0.1033,0.1036,0.1058,0.1073,0.1079,0.1082,0.109,0.1094,0.1093,0.1078,0.1055,0.1033,0.101,0.0996,0.0963,0.0975,0.0961,0.0982,0.0963,0.0974,0.0973,0.0974,0.0974,0.0973,0.0973,0,0,0.0964,0.1029,0.1029,0.1049,0.1077,0.1086,0.1095,0.1099,0.11,0.1106,0.1112,0.1056,0.1048,0.1026,0.0992,0.0973,0.0972,0.0973,0.0972,0.1007,0.0969,0.0979,0.0979,0.0967,0.0966,0.0966,0.0987,0,0.0953,0.0987,0.1027,0.1055,0.1063,0.1087,0.1103,0.1115,0.1126,0.1138,0.1099,0.109,0.1053,0.1045,0.102,0.0982,0.0969,0.0969,0.0961,0.0961,0.0991,0.0977,0.0995,0.1015,0.0986,0.0986,0.0986,0,0.0929,0.0972,0.0993,0.1067,0.1068,0.1085,0.1111,0.113,0.114,0.1154,0.1139,0.113,0.1092,0.1071,0.1016,0.1026,0.1,0.097,0.097,0.0966,0.0968,0.1022,0.1015,0.1013,0.0985,0.0985,0.0985,0,0.0881,0.0944,0.0968,0.0989,0.1057,0.1069,0.11,0.1122,0.1142,0.1159,0.1181,0.115,0.1147,0.11,0.1057,0.1044,0.1014,0.099,0.0969,0.0971,0.0975,0.0977,0.0982,0.0947,0.0947,0.0947,0.0947,0,0.0853,0.0875,0.0947,0.0961,0.0995,0.1052,0.1076,0.1102,0.1146,0.1167,0.1182,0.1194,0.1155,0.1143,0.1087,0.1042,0.1043,0.0972,0.0971,0.0986,0.099,0.0978,0.0974,0.0948,0.0948,0.0947,0.0947,0,0.0791,0.0834,0.0867,0.0944,0.0968,0.0987,0.1068,0.1089,0.1137,0.117,0.1182,0.1233,0.1225,0.1187,0.1132,0.1088,0.1046,0.1013,0.1049,0.1051,0.1019,0.1016,0.1011,0.1066,0.0994,0.0994,0.0995,0,0.0759,0.0769,0.084,0.0859,0.0891,0.094,0.0977,0.1059,0.1093,0.1181,0.1199,0.1236,0.1251,0.1212,0.1153,0.1088,0.1068,0.1057,0.1011,0.1023,0.1019,0.1012,0.1059,0.1039,0.1039,0.104,0.104,0,0.071,0.0725,0.0762,0.0806,0.0842,0.0897,0.0964,0.0996,0.109,0.1138,0.1205,0.1235,0.124,0.1219,0.1171,0.1115,0.1089,0.1063,0.1059,0.1039,0.1048,0.11,0.1038,0.1044,0.1044,0.1044,0.1043,0.1043,0.0662,0.0673,0.0717,0.0759,0.0804,0.086,0.0897,0.0976,0.1046,0.113,0.1185,0.123,0.1247,0.1195,0.1158,0.1109,0.1106,0.1069,0.1064,0.1054,0.1104,0.1063,0.1074,0.1074,0.1073,0.1073,0.1073,0,0.0599,0.0638,0.0677,0.073,0.0769,0.0812,0.0896,0.0937,0.1011,0.1089,0.1153,0.1205,0.1196,0.1176,0.1125,0.1105,0.1124,0.1098,0.109,0.114,0.1085,0.1084,0.1118,0.1118,0.1118,0.1118,0.1118,0.1118,0.0567,0.0592,0.0631,0.0688,0.0728,0.0781,0.0822,0.0891,0.0958,0.1047,0.11,0.1179,0.1228,0.1087,0.1067,0.1083,0.113,0.111,0.1151,0.1093,0.1089,0.1086,0.1084,0.1117,0.1117,0.1231,0.1232,0.1232]}],[{"header":{"parameterUnit":"m.s-1","parameterCategory":2,"la1":30.2991,"la2":30.254,"lo1":-89.0895,"lo2":-89.0444,"dy":0.0017,"dx":0.0017,"nx":28,"ny":28,"refTime":"2024-07-13T09:00:00:Z","depth":"2","parameterNumber":2,"parameterNumberName":"U-component_of_CURRENTS"},"data":[0,0,0,0,0,0,0,0,0,0,0,0,0,0,0,0,0,0,0,0,0,0,0,0,0,0,0,0,0,0,0,0,0,0,0,0,0,0,0,0,0,0,0,0,0,0,0,0,0,0,0,0,0,0,0,0,0,0,0.1037,0.1037,0,0.1189,0.1192,0.1196,0.1194,0.119,0.1186,0.1182,0.1158,0.1161,0.1164,0,0,0,0,0,0,0,0,0,0,0,0,0,0.0964,0.0966,0.1037,0.1037,0.1037,0.1188,0.1192,0.1196,0.1195,0.119,0.1185,0.118,0.1157,0.116,0.1164,0,0,0,0,0,0,0,0,0,0,0,0,0,0.1063,0.0966,0.1037,0.1039,0.1039,0.1187,0.1192,0.1198,0.1196,0.119,0.1184,0.1178,0.1155,0.116,0.1164,0.1311,0,0,0.1178,0.118,0,0,0,0,0,0,0,0,0.1057,0.1068,0.1038,0.1039,0.1039,0.1148,0.1156,0.1219,0.1197,0.1159,0.1182,0.1175,0.1128,0.1135,0.1209,0.131,0.1309,0.1179,0.1181,0.1183,0.1185,0,0,0,0,0,0,0,0.105,0.1063,0.1119,0.1038,0.1039,0.1105,0.1113,0.1172,0.1188,0.1161,0.1156,0.1142,0.1129,0.1206,0.1208,0.1309,0.1178,0.1182,0.1185,0.1187,0.0943,0.0935,0,0,0,0,0,0,0.0985,0.1056,0.1113,0.1121,0.101,0.1108,0.1119,0.1136,0.1191,0.1189,0.1146,0.114,0.1201,0.1203,0.1206,0.1155,0.1183,0.1188,0.119,0.0953,0.0941,0.0931,0,0,0,0,0,0,0.0983,0.099,0.1107,0.1073,0.1089,0.1112,0.1135,0.1142,0.1208,0.1178,0.1175,0.1198,0.1196,0.12,0.1155,0.116,0.119,0.1194,0.0963,0.0949,0.0936,0.1196,0,0,0,0,0,0,0.0982,0.099,0.1021,0.1069,0.1087,0.1054,0.1138,0.1148,0.1197,0.1192,0.1223,0.1215,0.1192,0.1148,0.116,0.1167,0.1197,0.0975,0.0957,0.0941,0.1199,0.1192,0.1187,0,0,0,0,0,0.0979,0.1003,0.1023,0.103,0.1117,0.1046,0.1061,0.1076,0.1205,0.1144,0.1189,0.1214,0.1039,0.115,0.1165,0.1174,0.0983,0.0962,0.0942,0.1201,0.1194,0.1187,0,0,0,0,0,0,0.0997,0.1006,0.1027,0.1059,0.0991,0.1033,0.1064,0.1109,0.1136,0.1214,0.1206,0.1194,0.1152,0.1067,0.1188,0.0998,0.0975,0.0956,0.1165,0.1158,0.1152,0.1219,0.1201,0,0,0,0,0,0.1016,0.0997,0.0999,0.0985,0.1017,0.1078,0.1094,0.111,0.1125,0.1144,0.1137,0.1109,0.1089,0.1048,0.1001,0.0976,0.096,0.0921,0.0916,0.0914,0.0944,0.0901,0.0904,0.0863,0.0864,0.0864,0,0,0.1015,0.1004,0.1003,0.098,0.1024,0.1042,0.1077,0.111,0.1074,0.1143,0.1131,0.1154,0.1075,0.1017,0.0976,0.0949,0.0904,0.0888,0.0892,0.0922,0.0881,0.0888,0.0895,0.0849,0.0852,0.0854,0,0,0.0979,0.1024,0.1031,0.0991,0.1005,0.1039,0.1044,0.1095,0.1065,0.1052,0.1096,0.1109,0.1023,0.0988,0.0966,0.088,0.0913,0.0797,0.0841,0.0801,0.0811,0.082,0.0843,0.0852,0.0757,0.0758,0.0758,0,0.1006,0.0994,0.0995,0.0993,0.096,0.1043,0.1041,0.1048,0.1027,0.1043,0.1003,0.1046,0.1012,0.1024,0.0965,0.0904,0.0892,0.0945,0.0824,0.0831,0.0836,0.0856,0.0863,0.0768,0.0767,0.0766,0.0765,0,0.096,0.0977,0.0983,0.1001,0.0948,0.0951,0.0938,0.0968,0.1016,0.1024,0.1027,0.1005,0.1011,0.0973,0.0983,0.0979,0.0971,0.0894,0.0926,0.0862,0.0878,0.0883,0.0782,0.0779,0.0776,0.0773,0,0,0.1023,0.097,0.099,0.0976,0.0962,0.0931,0.0931,0.0935,0.1012,0.0987,0.096,0.1016,0.1102,0.1065,0.107,0.1039,0.1108,0.0992,0.0986,0.1165,0.1081,0.092,0.0908,0.1046,0.1046,0.1046,0.1103,0,0.1019,0.0945,0.0931,0.0908,0.0893,0.0942,0.0893,0.0916,0.0926,0.0909,0.0958,0.099,0.1082,0.1151,0.1132,0.1107,0.1117,0.1103,0.0981,0.0978,0.0968,0.0904,0.0794,0.0819,0.1106,0.1107,0.1107,0,0.1048,0.095,0.0902,0.0834,0.086,0.0895,0.0927,0.089,0.0932,0.0917,0.1022,0.1068,0.1137,0.1121,0.1181,0.1177,0.1165,0.1136,0.1134,0.0903,0.0819,0.0895,0.0814,0.1112,0.1112,0.1112,0.1111,0,0.1026,0.098,0.0915,0.0886,0.0847,0.0911,0.0929,0.0974,0.0952,0.0998,0.1016,0.1101,0.1091,0.1143,0.1147,0.1199,0.1076,0.1116,0.0983,0.0975,0.0808,0.0781,0.1124,0.1124,0.1124,0.1124,0.1124,0,0.1019,0.0971,0.0956,0.0932,0.0932,0.0904,0.0971,0.1015,0.1006,0.0986,0.1075,0.1026,0.1091,0.1042,0.1093,0.1019,0.1062,0.1011,0.0962,0.0879,0.0859,0.1025,0.1013,0.1126,0.1125,0.1125,0.1125,0,0.1021,0.0976,0.0943,0.0937,0.0947,0.0974,0.0997,0.1036,0.1064,0.1004,0.1049,0.0977,0.0959,0.0977,0.0933,0.0917,0.089,0.0834,0.0757,0.0696,0.0874,0.0871,0.0824,0.0819,0.0814,0.081,0.0807,0,0.0989,0.0996,0.0999,0.0988,0.1028,0.1048,0.106,0.107,0.1076,0.0972,0.0913,0.087,0.0777,0.0629,0.0524,0.055,0.0697,0.0528,0.0604,0.0878,0.0836,0.0841,0.0845,0.0524,0.0518,0.0514,0.051,0,0.0964,0.1043,0.1026,0.1001,0.1043,0.1005,0.1025,0.1022,0.1006,0.0961,0.0809,0.074,0.0485,0.0355,0.0275,0.0282,0.0537,0.0439,0.0692,0.0574,0.0585,0.0546,0.0562,0.0471,0.0475,0.0478,0.048,0.0482,0.0968,0.1012,0.1039,0.1033,0.1023,0.0958,0.0961,0.0951,0.0901,0.0786,0.0623,0.0471,0.03,0.0111,0.0085,0.0096,0.0146,0.0299,0.0318,0.034,0.0252,0.0248,0.0062,0.0063,0.0065,0.0066,0.0067,0,0.0973,0.0999,0.1009,0.0991,0.0974,0.0967,0.093,0.0899,0.0859,0.0676,0.0511,0.0225,0.0075,0.0068,-0.0032,-0.007,-0.0023,0.0053,0.0167,0.0197,0.0226,0.0141,-0.0082,-0.008,-0.0079,-0.0078,0,0,0.0944,0.0889,0.0931,0.0891,0.0954,0.0918,0.0907,0.084,0.0738,0.0486,0.0376,0.0051,0.0048,-0.0009,-0.0097,-0.0022,0.013,-0.0028,0.0058,0.022,0.0254,0.0286,0.0174,0,0,0,0,0]},{"header":{"parameterUnit":"m.s-1","parameterCategory":2,"la1":30.2991,"la2":30.254,"lo1":-89.0895,"lo2":-89.0444,"dy":0.0017,"dx":0.0017,"nx":28,"ny":28,"refTime":"2024-07-13T09:00:00:Z","depth":"2","parameterNumber":3,"parameterNumberName":"V-component_of_CURRENTS"},"data":[0,0,0,0,0,0,0,0,0,0,0,0,0,0,0,0,0,0,0,0,0,0,0,0,0,0,0,0,0,0,0,0,0,0,0,0,0,0,0,0,0,0,0,0,0,0,0,0,0,0,0,0,0,0,0,0,0,0,0.0364,0.0364,0,0.036,0.036,0.036,0.032,0.0319,0.0318,0.0317,0.0285,0.0285,0.0285,0,0,0,0,0,0,0,0,0,0,0,0,0,0.0262,0.0265,0.0364,0.0364,0.0364,0.036,0.036,0.036,0.032,0.0319,0.0318,0.0316,0.0285,0.0285,0.0285,0,0,0,0,0,0,0,0,0,0,0,0,0,0.0287,0.0265,0.0364,0.0344,0.0342,0.036,0.036,0.036,0.032,0.0319,0.0317,0.0316,0.0285,0.0285,0.0285,0.0314,0,0,0.0285,0.0285,0,0,0,0,0,0,0,0,0.0286,0.0291,0.0347,0.0345,0.0343,0.0339,0.0312,0.0343,0.0321,0.0328,0.0317,0.0315,0.0302,0.03,0.0302,0.0313,0.0311,0.0285,0.0285,0.0285,0.0285,0,0,0,0,0,0,0,0.0284,0.029,0.0362,0.0347,0.0345,0.031,0.0312,0.0318,0.0322,0.0327,0.0324,0.0325,0.03,0.0303,0.0301,0.0311,0.0285,0.0285,0.0285,0.0285,0.0214,0.0212,0,0,0,0,0,0,0.0292,0.029,0.0362,0.0362,0.0311,0.0313,0.0316,0.0342,0.0323,0.0319,0.0326,0.0323,0.0303,0.0301,0.03,0.0311,0.0285,0.0285,0.0285,0.0216,0.0214,0.0212,0,0,0,0,0,0,0.029,0.0299,0.0362,0.0324,0.0329,0.0317,0.0346,0.0342,0.0345,0.0322,0.0317,0.0332,0.0302,0.03,0.0314,0.031,0.0285,0.0285,0.0218,0.0215,0.0213,0.0348,0,0,0,0,0,0,0.0288,0.0299,0.0321,0.0326,0.0332,0.0308,0.0347,0.0343,0.0348,0.0344,0.0326,0.0321,0.0301,0.0314,0.0314,0.031,0.0285,0.0221,0.0217,0.0214,0.0346,0.035,0.0353,0,0,0,0,0,0.0284,0.0304,0.0323,0.0331,0.0363,0.0305,0.0302,0.0289,0.035,0.03,0.035,0.0322,0.0287,0.0316,0.0315,0.0311,0.0222,0.0218,0.0214,0.0344,0.0349,0.0353,0,0,0,0,0,0,0.0274,0.0303,0.0322,0.0354,0.0307,0.0297,0.0296,0.0303,0.0309,0.0354,0.0345,0.0341,0.0347,0.0298,0.0329,0.0264,0.0231,0.0227,0.0329,0.0334,0.0338,0.0322,0.0285,0,0,0,0,0,0.0287,0.0279,0.0299,0.0291,0.0318,0.0323,0.0314,0.0307,0.0317,0.032,0.03,0.0303,0.0327,0.0311,0.0295,0.0288,0.0255,0.0259,0.0263,0.0267,0.0245,0.0219,0.0222,0.0197,0.0197,0.0198,0,0,0.0272,0.0281,0.0278,0.0282,0.0294,0.0307,0.0313,0.0307,0.0267,0.0321,0.0285,0.0335,0.0332,0.0325,0.0315,0.0286,0.026,0.0262,0.0267,0.0241,0.0216,0.0219,0.0221,0.0194,0.0195,0.0195,0,0,0.0233,0.0276,0.0285,0.0271,0.0282,0.0283,0.0288,0.0289,0.0244,0.024,0.029,0.0336,0.0309,0.0313,0.0326,0.033,0.0302,0.0307,0.0308,0.0286,0.0289,0.0292,0.0293,0.0294,0.0288,0.0288,0.0288,0,0.0223,0.0251,0.0257,0.0278,0.0267,0.0288,0.0296,0.026,0.0226,0.0239,0.0217,0.0302,0.0296,0.0358,0.0354,0.0343,0.0337,0.0319,0.0299,0.03,0.03,0.03,0.03,0.0294,0.0293,0.0292,0.0292,0,0.0209,0.0242,0.025,0.0286,0.0254,0.0252,0.0233,0.0228,0.0234,0.0221,0.0252,0.0263,0.0316,0.0313,0.035,0.036,0.0363,0.034,0.0311,0.0313,0.0311,0.0309,0.0302,0.03,0.0298,0.0297,0,0,0.0203,0.0235,0.0252,0.027,0.0268,0.0252,0.0235,0.0234,0.0279,0.0234,0.0232,0.0302,0.0355,0.0364,0.0398,0.0366,0.0392,0.0357,0.0353,0.0399,0.0374,0.0435,0.0438,0.039,0.0389,0.0389,0.039,0,0.0206,0.021,0.0228,0.0241,0.0259,0.0288,0.0251,0.0254,0.0246,0.0234,0.0263,0.0304,0.0346,0.0419,0.0391,0.0397,0.0384,0.0394,0.0326,0.0323,0.0411,0.0436,0.0331,0.0327,0.0387,0.0387,0.0386,0,0.0233,0.0216,0.022,0.0233,0.0261,0.0283,0.0316,0.0283,0.0306,0.0294,0.0362,0.0387,0.0414,0.039,0.0399,0.0418,0.0402,0.0377,0.0376,0.0374,0.0378,0.0319,0.032,0.0382,0.0382,0.0382,0.0383,0,0.0199,0.0236,0.0221,0.0225,0.025,0.0302,0.0325,0.0355,0.034,0.0367,0.0395,0.0422,0.0412,0.0413,0.0417,0.0423,0.0357,0.0353,0.0391,0.0396,0.0255,0.025,0.0318,0.0318,0.0318,0.0318,0.0318,0,0.0192,0.019,0.0242,0.0255,0.0291,0.0303,0.0359,0.0403,0.0409,0.0411,0.045,0.0432,0.0412,0.0396,0.0399,0.0403,0.0365,0.0396,0.0398,0.0302,0.0301,0.0287,0.0283,0.0318,0.0318,0.0318,0.0318,0,0.0158,0.0167,0.02,0.0268,0.0291,0.0334,0.0389,0.0426,0.0457,0.0442,0.0469,0.043,0.0434,0.0434,0.0378,0.0389,0.0389,0.0391,0.0302,0.0296,0.0448,0.045,0.0452,0.0454,0.0456,0.0457,0.0459,0,0.0109,0.0142,0.0238,0.0266,0.0322,0.0373,0.04,0.0439,0.0459,0.0447,0.0428,0.0432,0.0442,0.0414,0.0392,0.0435,0.0405,0.0362,0.0353,0.0459,0.046,0.046,0.046,0.022,0.0219,0.0219,0.0218,0,0.0082,0.0167,0.021,0.0272,0.0335,0.0354,0.0406,0.0422,0.045,0.0473,0.0443,0.0472,0.0426,0.0375,0.0426,0.0435,0.0365,0.0357,0.0443,0.0231,0.0248,0.0247,0.0252,0.0212,0.0213,0.0213,0.0214,0.0214,0.0068,0.0129,0.0231,0.0288,0.0338,0.035,0.0382,0.0431,0.0468,0.0501,0.0429,0.0447,0.027,0.0347,0.0365,0.0398,0.0403,0.0343,0.0341,0.034,0.0341,0.0363,0.035,0.0351,0.0352,0.0353,0.0354,0,0.007,0.0143,0.0212,0.0288,0.0338,0.0364,0.0396,0.0432,0.0515,0.0486,0.0497,0.0324,0.031,0.026,0.03,0.0331,0.0321,0.0328,0.0227,0.0229,0.0232,0.0226,0.0205,0.0206,0.0207,0.0208,0,0,0.0061,0.0097,0.0159,0.0245,0.0337,0.0391,0.0419,0.0486,0.0496,0.048,0.0458,0.0332,0.0249,0.0185,0.0137,0.0203,0.0256,0.024,0.0332,0.0212,0.0218,0.0184,0.0172,0,0,0,0,0]}],[{"header":{"parameterUnit":"m.s-1","parameterCategory":2,"la1":30.2991,"la2":30.254,"lo1":-89.0895,"lo2":-89.0444,"dy":0.0017,"dx":0.0017,"nx":28,"ny":28,"refTime":"2024-07-13T09:00:00:Z","depth":"4","parameterNumber":2,"parameterNumberName":"U-component_of_CURRENTS"},"data":[0,0,0,0,0,0,0,0,0,0,0,0,0,0,0,0,0,0,0,0,0,0,0,0,0,0,0,0,0,0,0,0,0,0,0,0,0,0,0,0,0,0,0,0,0,0,0,0,0,0,0,0,0,0,0,0,0,0,-0.076,-0.076,0,-0.0822,-0.0822,-0.0823,-0.0893,-0.0895,-0.0896,-0.0897,-0.0982,-0.0983,-0.0985,0,0,0,0,0,0,0,0,0,0,0,0,0,-0.0688,-0.0689,-0.076,-0.0761,-0.0761,-0.0821,-0.0822,-0.0823,-0.0893,-0.0895,-0.0896,-0.0898,-0.0982,-0.0983,-0.0985,0,0,0,0,0,0,0,0,0,0,0,0,0,-0.073,-0.0689,-0.0759,-0.0805,-0.081,-0.0821,-0.0822,-0.0823,-0.0893,-0.0895,-0.0897,-0.0898,-0.0981,-0.0983,-0.0985,-0.096,0,0,-0.099,-0.0991,0,0,0,0,0,0,0,0,-0.0727,-0.0732,-0.0797,-0.0802,-0.0807,-0.0853,-0.0828,-0.0871,-0.0893,-0.086,-0.0897,-0.0899,-0.0941,-0.0946,-0.0951,-0.0964,-0.0968,-0.099,-0.0991,-0.0992,-0.0993,0,0,0,0,0,0,0,-0.0724,-0.073,-0.0783,-0.0798,-0.0804,-0.0817,-0.0825,-0.0836,-0.0889,-0.0863,-0.0868,-0.0877,-0.0944,-0.0949,-0.0954,-0.0969,-0.099,-0.0992,-0.0993,-0.0994,-0.1134,-0.1136,0,0,0,0,0,0,-0.0718,-0.0727,-0.0781,-0.0785,-0.0772,-0.0817,-0.0826,-0.0835,-0.0888,-0.0899,-0.0875,-0.088,-0.0946,-0.0952,-0.0957,-0.1108,-0.0992,-0.0994,-0.0995,-0.1131,-0.1134,-0.1137,0,0,0,0,0,0,-0.0717,-0.0723,-0.0778,-0.0758,-0.0767,-0.0817,-0.0826,-0.0836,-0.0875,-0.0898,-0.0909,-0.0909,-0.0947,-0.0955,-0.1034,-0.1105,-0.0995,-0.0996,-0.1128,-0.1132,-0.1136,-0.1295,0,0,0,0,0,0,-0.0714,-0.0721,-0.0744,-0.0758,-0.0768,-0.0798,-0.0825,-0.0836,-0.0876,-0.0883,-0.0929,-0.0937,-0.0949,-0.1031,-0.1035,-0.1105,-0.0998,-0.1125,-0.113,-0.1134,-0.1287,-0.1304,-0.1319,0,0,0,0,0,-0.0711,-0.0734,-0.0745,-0.0753,-0.0791,-0.0799,-0.0805,-0.0845,-0.0876,-0.0888,-0.0958,-0.0938,-0.1065,-0.1035,-0.1039,-0.1112,-0.1122,-0.1128,-0.1134,-0.1279,-0.1301,-0.1319,0,0,0,0,0,0,-0.0717,-0.0744,-0.0756,-0.0788,-0.0797,-0.0812,-0.0845,-0.0857,-0.0917,-0.0977,-0.0973,-0.0986,-0.11,-0.1065,-0.1031,-0.1164,-0.1089,-0.1096,-0.1198,-0.1218,-0.1234,-0.1203,-0.0999,0,0,0,0,0,-0.0725,-0.075,-0.0763,-0.0787,-0.0804,-0.0826,-0.0844,-0.089,-0.0934,-0.0964,-0.0992,-0.1047,-0.1117,-0.1136,-0.1192,-0.1237,-0.1182,-0.1283,-0.13,-0.1314,-0.1291,-0.1301,-0.1315,-0.1157,-0.1157,-0.1157,0,0,-0.0727,-0.0751,-0.0762,-0.079,-0.0814,-0.0834,-0.0843,-0.0913,-0.0939,-0.0965,-0.1037,-0.1125,-0.1151,-0.1251,-0.129,-0.123,-0.133,-0.1322,-0.1334,-0.1303,-0.1308,-0.1323,-0.1337,-0.1161,-0.116,-0.116,0,0,-0.0736,-0.0775,-0.0796,-0.0807,-0.087,-0.0892,-0.0912,-0.0965,-0.1005,-0.1089,-0.1147,-0.1261,-0.1316,-0.1365,-0.139,-0.1506,-0.1444,-0.1538,-0.1568,-0.158,-0.1592,-0.1603,-0.1549,-0.1553,-0.1514,-0.1514,-0.1514,0,-0.0745,-0.0773,-0.08,-0.0819,-0.0844,-0.0911,-0.0941,-0.0974,-0.1052,-0.1088,-0.114,-0.1318,-0.1364,-0.1461,-0.1537,-0.1544,-0.152,-0.15,-0.1601,-0.161,-0.1617,-0.156,-0.1563,-0.1522,-0.1521,-0.1521,-0.152,0,-0.0748,-0.0787,-0.0806,-0.0849,-0.0872,-0.0932,-0.0975,-0.1048,-0.1136,-0.1161,-0.132,-0.143,-0.1528,-0.1577,-0.1605,-0.1699,-0.1655,-0.165,-0.155,-0.1643,-0.1576,-0.1576,-0.1534,-0.1531,-0.1529,-0.1527,0,0,-0.0739,-0.08,-0.0812,-0.0833,-0.0919,-0.0934,-0.1016,-0.1077,-0.1141,-0.1261,-0.1329,-0.1513,-0.1611,-0.1646,-0.1725,-0.1732,-0.1802,-0.1727,-0.1724,-0.1668,-0.1793,-0.1608,-0.1588,-0.1834,-0.1835,-0.1836,-0.1722,0,-0.0747,-0.0793,-0.0824,-0.0869,-0.0901,-0.0982,-0.1025,-0.1102,-0.1205,-0.1286,-0.1413,-0.1545,-0.1616,-0.1751,-0.1778,-0.1827,-0.181,-0.1829,-0.1711,-0.1705,-0.1528,-0.1586,-0.184,-0.1721,-0.1721,-0.172,-0.172,0,-0.0749,-0.0783,-0.0837,-0.0899,-0.0921,-0.0959,-0.1089,-0.1161,-0.1275,-0.1366,-0.152,-0.1608,-0.1733,-0.1775,-0.1836,-0.1859,-0.1837,-0.1821,-0.1817,-0.1577,-0.152,-0.1608,-0.1718,-0.1718,-0.1719,-0.1719,-0.1719,0,-0.0735,-0.0795,-0.0847,-0.0861,-0.0937,-0.0996,-0.1084,-0.1203,-0.128,-0.1461,-0.155,-0.1675,-0.1798,-0.1811,-0.1842,-0.1863,-0.1825,-0.1834,-0.1609,-0.1593,-0.1721,-0.1711,-0.1808,-0.1808,-0.1808,-0.1808,-0.1809,0,-0.0735,-0.0764,-0.0849,-0.0864,-0.0927,-0.1017,-0.1123,-0.1237,-0.1398,-0.1468,-0.1634,-0.1678,-0.1824,-0.1826,-0.182,-0.1709,-0.1814,-0.1597,-0.1557,-0.179,-0.179,-0.172,-0.1711,-0.1804,-0.1805,-0.1806,-0.1806,0,-0.0698,-0.0758,-0.0797,-0.0888,-0.092,-0.099,-0.1136,-0.1211,-0.1411,-0.153,-0.1607,-0.1703,-0.1664,-0.1709,-0.1687,-0.1667,-0.1584,-0.1498,-0.1704,-0.168,-0.1337,-0.1338,-0.1228,-0.1221,-0.1215,-0.121,-0.1205,0,-0.0685,-0.0708,-0.0794,-0.0813,-0.0856,-0.0964,-0.1026,-0.1218,-0.1279,-0.148,-0.1484,-0.1521,-0.1542,-0.1329,-0.1396,-0.1318,-0.13,-0.1317,-0.1365,-0.1308,-0.1281,-0.1292,-0.1302,-0.1195,-0.1194,-0.1192,-0.1191,0,-0.0632,-0.0676,-0.071,-0.076,-0.0812,-0.0838,-0.0943,-0.096,-0.1176,-0.1361,-0.1308,-0.1301,-0.1189,-0.1119,-0.109,-0.1041,-0.1368,-0.1252,-0.1265,-0.1309,-0.1267,-0.1249,-0.1265,-0.1169,-0.1172,-0.1174,-0.1175,0,-0.0602,-0.0603,-0.0657,-0.0693,-0.072,-0.0683,-0.0749,-0.0769,-0.085,-0.1086,-0.1011,-0.103,-0.1096,-0.096,-0.0914,-0.0877,-0.0852,-0.0918,-0.0949,-0.0973,-0.0953,-0.0866,-0.059,0,0,0,0,0,-0.0572,-0.056,-0.0576,-0.0578,-0.0588,-0.06,-0.0659,-0.0729,-0.09,-0.0819,-0.0935,-0.0814,-0.0756,-0.0713,-0.0603,-0.0766,-0.0852,-0.0649,-0.0944,-0.1049,-0.1074,-0.108,0,0,0,0,0,0,-0.054,-0.0555,-0.0552,-0.0468,-0.0438,-0.0425,-0.0441,-0.056,-0.0481,-0.0667,-0.0546,-0.0786,-0.0623,-0.0765,-0.0583,-0.0594,-0.0772,-0.0687,-0.0686,-0.1035,-0.1058,-0.1078,-0.1093,0,0,0,0,0]},{"header":{"parameterUnit":"m.s-1","parameterCategory":2,"la1":30.2991,"la2":30.254,"lo1":-89.0895,"lo2":-89.0444,"dy":0.0017,"dx":0.0017,"nx":28,"ny":28,"refTime":"2024-07-13T09:00:00:Z","depth":"4","parameterNumber":3,"parameterNumberName":"V-component_of_CURRENTS"},"data":[0,0,0,0,0,0,0,0,0,0,0,0,0,0,0,0,0,0,0,0,0,0,0,0,0,0,0,0,0,0,0,0,0,0,0,0,0,0,0,0,0,0,0,0,0,0,0,0,0,0,0,0,0,0,0,0,0,0,-0.0052,-0.0051,0,-0.0065,-0.0065,-0.0066,-0.0065,-0.0064,-0.0064,-0.0063,-0.0002,-0.0001,-0.0,0,0,0,0,0,0,0,0,0,0,0,0,0,-0.0049,-0.005,-0.0052,-0.0051,-0.0051,-0.0065,-0.0065,-0.0066,-0.0065,-0.0064,-0.0064,-0.0063,-0.0003,-0.0002,-0.0,0,0,0,0,0,0,0,0,0,0,0,0,0,-0.0059,-0.005,-0.0052,-0.0049,-0.0049,-0.0065,-0.0065,-0.0066,-0.0065,-0.0064,-0.0063,-0.0063,-0.0003,-0.0002,-0.0,-0.0008,0,0,0.0005,0.0005,0,0,0,0,0,0,0,0,-0.0059,-0.006,-0.005,-0.0049,-0.0049,-0.0058,-0.0042,-0.0042,-0.0065,-0.0064,-0.0063,-0.0062,-0.0012,-0.001,-0.0022,-0.0006,-0.0003,0.0005,0.0006,0.0007,0.0007,0,0,0,0,0,0,0,-0.0058,-0.0059,-0.0061,-0.0049,-0.0049,-0.0055,-0.0056,-0.0043,-0.0045,-0.0064,-0.0063,-0.0057,-0.0012,-0.0023,-0.002,-0.0002,0.0005,0.0006,0.0007,0.0008,0.0031,0.003,0,0,0,0,0,0,-0.0047,-0.0059,-0.0061,-0.0061,-0.0047,-0.0055,-0.0056,-0.006,-0.0047,-0.0043,-0.0058,-0.0057,-0.0026,-0.0022,-0.0018,-0.0008,0.0006,0.0008,0.0009,0.0031,0.0031,0.003,0,0,0,0,0,0,-0.0047,-0.0048,-0.006,-0.0056,-0.0058,-0.0056,-0.006,-0.006,-0.0066,-0.0042,-0.0038,-0.0062,-0.0026,-0.002,-0.001,-0.0006,0.0009,0.001,0.0032,0.0031,0.0031,0.0,0,0,0,0,0,0,-0.0048,-0.0048,-0.0051,-0.0056,-0.0057,-0.0069,-0.006,-0.0061,-0.0063,-0.0062,-0.0044,-0.0038,-0.0024,-0.0013,-0.0009,-0.0003,0.0011,0.0032,0.0031,0.0031,0.0002,-0.0001,-0.0004,0,0,0,0,0,-0.0048,-0.0057,-0.0052,-0.0052,-0.0061,-0.0069,-0.0071,-0.0069,-0.0063,-0.0071,-0.0061,-0.0038,-0.0013,-0.0012,-0.0007,-0.0001,0.0032,0.0031,0.0031,0.0003,-0.0001,-0.0003,0,0,0,0,0,0,-0.0062,-0.0057,-0.0052,-0.006,-0.0061,-0.0067,-0.0073,-0.007,-0.0072,-0.007,-0.0048,-0.0042,-0.0027,-0.0015,-0.0015,0.0003,0.0015,0.0016,-0.0007,-0.001,-0.0013,-0.0005,0.0013,0,0,0,0,0,-0.0064,-0.0067,-0.0064,-0.007,-0.0071,-0.0072,-0.0075,-0.0075,-0.0074,-0.0075,-0.0064,-0.0049,-0.003,-0.0021,-0.0006,-0.0003,0.0032,0.0006,0.0003,0.0001,0.001,0.0071,0.0075,0.0028,0.0028,0.0028,0,0,-0.0072,-0.0067,-0.007,-0.0072,-0.0075,-0.0089,-0.0073,-0.0081,-0.0093,-0.0066,-0.008,-0.0056,-0.003,-0.0024,-0.0016,-0.0012,0.0027,-0.0,-0.0002,0.0009,0.007,0.0075,0.008,0.0027,0.0027,0.0027,0,0,-0.0088,-0.0085,-0.0093,-0.0098,-0.0096,-0.01,-0.0101,-0.0109,-0.0111,-0.0118,-0.0095,-0.0079,-0.006,-0.0046,-0.0032,-0.0043,0.0014,-0.0026,-0.0035,0.0023,0.0028,0.0033,0.0062,0.0069,-0.0031,-0.0031,-0.0031,0,-0.0098,-0.0109,-0.0098,-0.0109,-0.0119,-0.0106,-0.0128,-0.0131,-0.0136,-0.0138,-0.0124,-0.0093,-0.0074,-0.0055,-0.0051,-0.0049,-0.0002,-0.0025,0.0021,0.0027,0.0032,0.0061,0.007,-0.0033,-0.0033,-0.0032,-0.0032,0,-0.0121,-0.0133,-0.014,-0.0151,-0.0162,-0.0177,-0.0178,-0.0191,-0.0186,-0.0181,-0.0162,-0.0134,-0.0107,-0.0099,-0.0072,-0.0026,-0.0002,0.0015,0.0032,0.0036,0.0065,0.0075,-0.0035,-0.0034,-0.0034,-0.0034,0,0,-0.0138,-0.0153,-0.0158,-0.0173,-0.0187,-0.0201,-0.0224,-0.0237,-0.0253,-0.0229,-0.0238,-0.0187,-0.0147,-0.0127,-0.0088,-0.0039,0.0031,0.0016,0.002,0.0049,0.0162,0.0025,0.0023,0.0079,0.0081,0.0083,0.016,0,-0.0162,-0.0193,-0.0197,-0.0238,-0.0259,-0.0265,-0.029,-0.0299,-0.0297,-0.0303,-0.025,-0.0224,-0.0162,-0.0135,-0.0073,0.001,0.0061,0.0008,0.0151,0.0155,0.0037,0.0031,0.0089,0.0167,0.017,0.0171,0.0173,0,-0.0187,-0.0206,-0.0249,-0.0287,-0.0297,-0.0324,-0.0366,-0.0385,-0.0383,-0.037,-0.0324,-0.0269,-0.0187,-0.0139,0.0023,0.0002,0.009,0.0148,0.0153,0.0047,0.0036,0.0169,0.0191,0.019,0.0188,0.0187,0.0186,0,-0.0208,-0.0244,-0.0281,-0.0294,-0.0335,-0.0364,-0.039,-0.041,-0.0429,-0.04,-0.0394,-0.0287,-0.0231,-0.0092,0.0039,0.0063,0.0193,0.023,0.0181,0.0172,0.029,0.0284,0.0344,0.0344,0.0344,0.0343,0.0343,0,-0.0236,-0.0265,-0.0295,-0.032,-0.0374,-0.0392,-0.0448,-0.046,-0.0478,-0.05,-0.041,-0.0395,-0.0201,-0.011,0.0022,0.011,0.0188,0.0177,0.0184,0.027,0.0262,0.0296,0.0289,0.0346,0.0346,0.0345,0.0345,0,-0.0257,-0.0274,-0.0319,-0.0368,-0.0388,-0.0429,-0.0491,-0.0527,-0.0525,-0.0554,-0.0531,-0.0444,-0.0336,-0.0197,-0.0007,0.0062,0.0167,0.0178,0.0225,0.0234,0.0121,0.0112,0.0153,0.0149,0.0145,0.0142,0.014,0,-0.0273,-0.0296,-0.0355,-0.0392,-0.0419,-0.0478,-0.0526,-0.0551,-0.0576,-0.0592,-0.0596,-0.0523,-0.0456,-0.0277,-0.0152,0.0026,0.0053,0.0119,0.0159,0.0099,0.0103,0.0099,0.0095,0.0134,0.0133,0.0132,0.0131,0,-0.0302,-0.0317,-0.0357,-0.0422,-0.0479,-0.0543,-0.0599,-0.061,-0.0639,-0.0649,-0.0611,-0.0544,-0.0477,-0.0323,-0.0219,-0.0083,0.0086,0.0083,0.0094,0.0133,0.0077,0.0083,0.0083,0.0119,0.0121,0.0122,0.0123,0,-0.0325,-0.0349,-0.039,-0.0443,-0.0515,-0.057,-0.0605,-0.062,-0.0637,-0.063,-0.0634,-0.0559,-0.0504,-0.0388,-0.029,-0.0194,-0.0145,-0.0054,-0.0035,-0.002,-0.0116,-0.0214,-0.0259,0,0,0,0,0,-0.0344,-0.0356,-0.0408,-0.0464,-0.0533,-0.0567,-0.0634,-0.0657,-0.0676,-0.0643,-0.0628,-0.0567,-0.0467,-0.042,-0.0341,-0.0374,-0.0151,-0.0283,-0.0039,0.0051,0.0065,-0.0033,0,0,0,0,0,0,-0.0357,-0.0393,-0.0396,-0.0455,-0.0494,-0.057,-0.0607,-0.0637,-0.0593,-0.0601,-0.0524,-0.0538,-0.0418,-0.0488,-0.0327,-0.0315,-0.0149,-0.0246,-0.0244,0.0043,0.0056,0.0067,-0.0029,0,0,0,0,0]}]]